Regional Weather Roundup
Issued by NWS Charleston, WV

Home | Current Version | Previous Version | Graphics & Text | Print | Product List | Glossary On
Versions: 1 2 3 4 5 6 7 8 9 10 11 12 13 14 15 16 17 18 19 20 21 22 23 24 25 26 27 28 29 30 31 32 33 34 35 36 37 38 39 40 41 42 43 44 45 46 47 48 49
000
ASUS41 KRLX 030710
RWRRLX
West Virginia Regional Weather Roundup
National Weather Service Charleston WV
200 AM EST TUE MAR 03 2015

Note: "fair" indicates few or no clouds below 12,000 feet with no
significant weather and/or obstructions to visibility.

WVZ003-030800-
Northern Panhandle of West Virginia

CITY           SKY/WX    TMP DP  RH WIND       PRES   REMARKS
WHEELING       MOCLDY    20  12  71 E8        30.32F
$$

WVZ009-030800-
Northwest West Virginia

CITY           SKY/WX    TMP DP  RH WIND       PRES   REMARKS
PARKERSBURG    CLOUDY    23  18  81 CALM      30.34F
$$

WVZ006-030800-
Western West Virginia

CITY           SKY/WX    TMP DP  RH WIND       PRES   REMARKS
HUNTINGTON     CLOUDY    28  19  69 NE5       30.25F
$$

WVZ015-030800-
West Central West Virginia

CITY           SKY/WX    TMP DP  RH WIND       PRES   REMARKS
CHARLESTON     CLOUDY    29  21  72 NE7       30.25F
$$

WVZ022-031-030800-
North Central West Virginia

CITY           SKY/WX    TMP DP  RH WIND       PRES   REMARKS
CLARKSBURG     PTCLDY    23  18  81 CALM      30.32F
MORGANTOWN     MOCLDY    24  14  65 CALM      30.34F
$$

WVZ025-035-042-045-030800-
Southern West Virginia

CITY           SKY/WX    TMP DP  RH WIND       PRES   REMARKS
BECKLEY        CLOUDY    30  15  53 SE9       30.21F
LOGAN            N/A     30  21  69 NE5       30.17F
BLUEFIELD      MOCLDY    34  16  47 E7        30.21F
LEWISBURG      CLOUDY    27  19  73 N6        30.27F
$$

WVZ047-030800-
Northern Mountains of West Virginia

CITY           SKY/WX    TMP DP  RH WIND       PRES   REMARKS
ELKINS         MOCLDY    20  18  92 CALM      30.30R
$$

WVZ052-030800-
Eastern Panhandle of West Virginia

CITY           SKY/WX    TMP DP  RH WIND       PRES   REMARKS
MARTINSBURG    MOCLDY    24  15  68 CALM      30.40S
PETERSBURG     MOCLDY    25  19  78 E3        30.37R
$$


USA.gov is the U.S. government's official web portal to all federal, state and local government web resources and services.